SCP
0 0 0 0 0 0 0 0 0 0 0 0 0 0 0 0 0 0 0 0 0 0 0 0 0 0 0 0 0 0 0 0 0 0 0 0 -0 -0 -0 -0 -0 -0 -0 0 0 0 0 0 0
0 0 0 0 0 0 0 0 0 0 0 0 0 0 0 0 0 0 0 0 0 0 0 0 0 0 0 0 0 0 0 0 0 0 0 0 0 0 0 0 -0 -0 -0 0 0 0 0 0 0
0 0 0 0 0 0 0 0 0 0 0 0 0 0 0 0 0 0 0 0 0 0 0 0 0 0 0 0 0 0 0 0 0 0 0 0 0 0 0 0 0 0 0 0 0 0 0 0 0
0 0 0 0 0 0 0 0 0 0 0 0 0 0 0 0 0 0 0 0 0 0 0 0 0 0 0 0 0 0 0 0 0 0 0 0 0 0 0 0 0 0 0 0 0 0 0 0 0
0 0 0 0 0 0 0 0 0 0 0 0 0 0 0 0 0 0 0 0 0 0 0 0 0 0 0 0 0 0 0 0 0 0 0 0 0 0 0 0 0 0 0 0 0 0 0 0 0
0 0 0 0 0 0 0 0 0 0 0 0 0 0 0 0 0 0 0 0 0 0 0 0 0 0 0 0 0 0 0 0 0 0 0 0 0 0 0 0 0 0 0 0 0 0 0 0 0
0 0 0 0 0 0 0 0 0 0 0 0 0 0 0 0 0 0 0 0 0 0 0 0 0 0 0 0 0 0 0 0 0 0 0 0 0 0 0 0 0 0 0 0 0 0 0 0 0
0 0 0 0 0 0 0 0 0 0 0 0 0 0 0 0 0 0 0 0 0 0 0 0 0 0 0 0 0 0 0 0 0 0 0 0 0 0 0 0 0 0 0 0 0 0 0 0 0
0 0 0 0 0 0 0 0 0 0 0 0 0 0 0 0 0 0 0 0 0 0 0 0 0 0 0 0 0 0 0 0 0 0 0 0 0 0 0 0 0 0 0 0 0 0 0 0 0
0 0 0 0 0 0 0 0 0 0 0 0 0 0 0 0 0 0 0 0 0 0 0 0 0 0 0 0 0 0 0 0 0 0 0 0 0 0 0 0 0 0 0 0 0 0 0 0 0
0 0 0 0 0 0 0 0 0 0 0 0 0 0 0 0 0 0 0 0 0 0 0 0 0 0 0 0 0 0 0 0 0 0 0 0 0 0 0 0 0 0 0 0 0 0 0 0 0
0 0 0 0 0 0 0 0 0 0 0 0 0 0 0 0 0 0 0 0 0 0 0 0 0 0 0 0 0 0 0 0 0 0 0 0 0 0 0 0 0 0 0 0 0 0 0 0 0
0 0 0 0 0 0 0 0 0 0 0 0 0 0 0 0 0 0 0 0 0 0 0 0 0 0 0 0 0 0 0 0 0 0 0 0 0 0 0 0 0 0 0 0 0 0 0 0 0
0 0 0 0 0 0 0 0 0 0 0 0 0 0 0 0 0 0 0 0 0 0 0 0 0 0 0 0 0 0 0 0 0 0 0 0 0 0 0 0 0 0 0 0 0 0 0 0 0
0 0 0 0 0 0 0 0 0 0 0 0 0 0 0 0 0 0 0 0 0 0 0 0 0 0 0 0 0 0 0 0 0 0 0 0 0 0 0 0 0 0 0 0 0 0 0 0 0
0 0 0 0 0 0 0 0 0 0 0 0 0 0 0 0 0 0 0 0 0 0 0 0 0 0 0 0 0 0 0 0 0 0 0 0 0 0 0 0 0 0 0 0 0 0 0 0 0
0 0 0 0 0 0 0 0 0 0 0 0 0 0 0 0 0 0 0 0 0 0 0 0 0 0 0 0 0 0 0 0 0 0 0 0 0 0 0 0 0 0 0 0 0 0 0 0 0
0 0 0 0 0 0 0 0 0 0 0 0 0 0 0 0 0 0 0 0 0 0 0 0 0 0 0 0 0 0 0 0 0 0 0 0 0 0 0 0 0 0 0 0 0 0 0 0 0
0 0 0 0 0 0 0 0 0 0 0 0 0 0 0 0 0 0 0 0 0 0 0 0 0 0 0 0 0 0 0 0 0 0 0 0 0 0 0 0 0 0 0 0 0 0 0 0 0
0 0 0 0 0 0 0 0 0 0 0 0 0 0 0 0 0 0 0 0 0 0 0 0 0 0 0 0 0 0 0 0 0 0 0 0 0 0 0 0 0 0 0 0 0 0 0 0 0
0 0 0 0 0 0 0 0 0 0 0 0 0 0 0 0 0 0 0 0 0 0 0 0 0 0 0 0 0 0 0 0 0 0 0 0 0 0 0 0 0 0 0 0 0 0 0 0 0
0 0 0 0 0 0 0 0 0 0 0 0 0 0 0 0 0 0 0 0 0 0 0 0 0 0 0 0 0 0 0 0 0 0 0 0 0 0 0 0 0 0 0 0 0 0 0 0 0
0 0 0 0 0 0 0 0 0 0 0 0 0 0 0 0 0 0 0 0 0 0 0 0 0 0 0 0 0 0 0 0 0 0 0 0 0 0 0 0 0 0 0 0 0 0 0 0 0
0 0 0 0 0 0 0 0 0 0 0 0 0 0 0 0 0 0 0 0 0 0 0 0 0 0 0 0 0 0 0 0 0 0 0 0 0 0 0 0 0 0 0 0 0 0 0 0 0
0 0 0 0 0 0 0 0 0 0 0 0 0 0 0 0 0 0 0 0 0 0 0 0 0 0 0 0 0 0 0 0 0 0 0 0 0 0 0 0 0 0 0 0 0 0 0 0 0
0 0 0 0 0 0 0 0 0 0 0 0 0 0 0 0 0 0 0 0 0 0 0 0 0 0 0 0 0 0 0 0 0 0 0 0 0 0 0 0 0 0 0 0 0 0 0 0 0
0 0 0 0 0 0 0 0 0 0 0 0 0 0 0 0 -0 0 0 0 0 0 0 0 0 0 0 0 0 0 0 0 0 0 0 0 0 0 0 0 0 0 0 0 0 0 0 0 0
0 0 0 0 0 0 0 0 0 0 0 0 0 0 0 0 -0 0 0 0 0 0 0 0 0 0 0 0 0 0 0 0 0 0 0 0 0 0 0 0 0 0 0 0 0 0 0 0 0
0 0 0 0 0 0 0 0 0 0 0 0 0 0 0 -0 -0 0 0 0 -0 0 0 0 0 0 0 0 0 0 0 0 0 0 0 0 0 0 0 0 0 0 0 0 0 0 0 0 0
0 0 0 0 0 0 0 0 0 0 0 0 0 0 -0 -0 -0 0 0 0 0 0 0 -0 0 0 0 0 0 0 0 0 0 0 0 0 -0 0 0 0 0 0 0 0 0 0 0 0 0
Wind_Speed_500mb
16 21 22 12 7 9 6 12 6 14 7 5 3 6 11 8 2 6 13 35 27 25 28 28 25 22 20 17 13 10 8 7 6 8 14 14 16 20 21 19 19 17 19 16 18 24 26 24 27
18 21 13 7 8 5 10 9 8 7 7 4 9 13 5 2 7 10 31 37 31 27 32 32 27 23 20 17 14 10 8 7 6 8 8 11 15 20 22 23 25 27 27 26 25 25 30 31 32
21 20 7 8 7 10 10 5 6 4 5 6 6 6 7 4 14 9 16 40 36 34 35 33 29 25 20 16 13 10 7 6 6 9 11 13 15 19 19 22 24 23 24 28 30 28 31 33 32
14 8 5 7 11 12 11 7 8 6 5 5 11 5 2 9 5 21 23 35 34 37 37 34 31 27 23 18 14 11 11 12 13 15 17 19 20 23 24 25 27 23 23 30 29 29 29 31 31
13 6 6 2 10 11 9 14 24 9 4 6 11 7 5 10 15 21 24 31 32 35 35 34 32 27 23 19 16 16 16 16 18 20 22 23 25 25 27 27 26 27 27 23 29 34 32 34 34
6 3 5 7 11 9 13 7 10 6 5 4 10 14 7 14 22 22 25 31 30 29 33 34 32 28 23 20 18 19 21 22 22 22 22 25 26 26 26 27 28 28 28 30 28 27 35 38 38
9 8 8 8 9 10 6 8 4 4 0 1 2 8 6 20 23 25 30 35 34 34 35 34 31 27 24 22 20 21 22 22 22 22 24 23 25 25 23 24 26 27 30 32 33 35 35 39 41
3 7 4 8 6 7 8 6 3 5 4 1 5 8 9 28 33 35 38 39 37 37 36 36 32 28 27 23 21 20 19 22 23 23 23 24 26 25 24 23 22 25 26 30 34 38 43 45 43
5 5 6 8 7 3 9 6 3 6 10 5 7 10 13 14 38 43 45 45 44 41 38 38 34 31 28 24 23 21 19 19 20 21 22 24 26 27 29 29 28 27 28 29 32 36 41 45 48
8 6 15 6 0 3 4 4 13 8 14 6 17 24 23 22 39 47 50 49 50 45 40 36 33 32 29 26 24 21 21 20 19 20 22 24 26 26 27 29 32 33 34 34 33 35 38 43 47
12 11 8 4 2 3 5 9 3 10 10 18 17 20 22 29 41 47 49 48 46 40 38 35 32 32 30 28 25 22 21 21 22 24 25 25 25 25 26 28 30 34 37 38 37 37 40 41 44
6 19 18 8 2 5 6 7 8 22 29 7 11 22 23 34 45 50 49 50 49 44 38 35 33 32 32 31 27 25 23 23 24 26 28 28 29 30 31 32 33 35 38 40 41 41 41 42 44
9 7 11 21 26 23 17 18 14 45 54 47 48 42 29 37 46 49 48 45 46 46 43 41 37 35 32 32 30 29 27 27 28 30 32 33 33 33 34 35 37 39 38 38 39 40 41 42 44
3 9 21 26 34 19 9 6 7 32 25 18 19 23 39 47 49 50 52 49 50 46 46 44 42 37 34 33 33 31 30 30 31 33 35 37 38 37 38 40 41 39 38 35 37 38 38 38 40
4 11 13 13 11 8 6 11 16 27 25 18 18 31 30 29 38 52 50 49 47 46 45 48 44 39 38 36 34 33 33 33 35 35 35 36 39 40 41 42 40 37 34 32 30 32 35 38 40
2 5 7 4 11 1 6 14 10 8 4 6 17 23 20 31 36 40 46 44 45 48 51 52 46 41 39 37 36 35 36 36 37 36 35 36 39 41 42 38 34 32 30 29 28 29 29 32 37
3 7 11 10 2 5 6 11 11 12 22 44 53 42 40 42 46 43 49 50 51 51 54 50 45 40 40 39 38 38 38 37 36 35 36 38 40 40 39 34 30 28 26 26 27 26 31 35 39
13 9 9 9 3 1 8 20 19 56 47 42 30 23 16 16 15 25 43 45 50 47 46 42 41 42 43 43 39 38 36 35 34 35 38 40 39 36 28 25 25 27 27 28 29 33 32 37 44
7 7 8 6 2 4 11 14 22 39 13 11 12 12 14 17 20 23 31 38 42 41 39 38 39 42 42 39 37 35 33 33 34 37 37 36 32 28 24 25 26 26 26 26 28 28 30 30 37
6 7 9 8 2 2 8 21 2 9 6 11 13 14 13 16 17 19 22 25 28 29 33 37 39 41 38 34 33 32 34 34 35 35 33 32 30 29 29 27 24 21 21 21 24 27 27 28 30
8 9 7 6 12 3 13 11 3 2 9 14 13 10 7 6 11 15 18 23 28 32 37 38 34 32 32 33 34 36 37 37 36 34 32 32 32 31 28 26 23 21 22 23 25 25 26 29 30
8 7 8 7 7 6 5 9 6 7 4 1 3 5 5 4 1 6 11 15 20 23 27 30 30 33 37 38 37 38 38 36 33 31 29 27 29 28 27 23 23 23 23 24 24 23 26 29 31
8 7 8 7 6 8 1 6 11 8 5 5 5 2 4 11 15 19 21 23 25 27 29 33 37 38 39 40 39 37 35 33 31 29 28 26 27 28 24 24 24 24 25 26 27 25 24 26 32
12 8 8 7 6 2 8 9 8 9 11 6 7 11 20 16 15 17 20 23 26 29 31 33 34 35 35 35 34 32 31 29 27 27 26 27 26 25 24 25 25 24 25 26 26 27 26 31 35
7 9 4 7 4 10 5 2 15 8 9 8 6 13 13 14 18 20 23 26 27 30 32 32 31 30 31 31 29 28 27 26 25 26 29 28 26 25 24 25 25 23 25 26 25 27 28 32 35
10 11 9 13 7 7 6 11 10 10 0 5 8 12 16 21 23 24 25 25 26 28 28 29 29 29 29 28 27 26 26 26 28 32 31 28 27 23 23 24 23 24 25 26 28 32 35 37 40
9 6 5 12 7 5 6 12 7 7 6 6 13 14 19 25 25 24 21 22 24 23 24 26 27 27 27 27 27 27 27 27 30 30 26 23 21 20 20 21 23 22 23 27 32 36 36 40 41
4 8 6 5 5 8 9 10 10 8 9 7 10 15 21 23 24 18 15 18 21 22 24 25 26 26 25 25 24 24 25 27 25 21 17 17 16 16 20 21 21 23 27 30 34 33 31 35 33
7 3 5 7 7 9 4 11 11 16 15 11 14 10 15 21 25 21 15 18 20 20 21 22 23 21 18 18 21 24 23 19 17 16 16 16 14 16 16 15 17 20 23 25 27 30 34 37 38
3 10 8 8 10 3 6 12 6 14 13 15 13 7 8 15 20 21 21 20 20 20 19 19 19 17 17 18 19 18 15 11 10 11 12 13 12 14 12 12 14 15 16 17 19 23 26 31 33
Wind_Direction_500mb
151 154 151 139 69 66 262 261 261 305 328 314 53 98 135 67 151 206 157 172 180 190 191 187 182 185 187 187 186 177 181 188 214 241 242 247 245 240 249 249 260 255 237 254 267 247 250 249 241
161 164 155 115 97 112 260 257 217 218 178 129 103 107 75 153 149 168 157 186 202 198 186 188 183 181 181 180 183 185 193 211 241 259 260 253 262 269 265 259 248 247 244 235 234 234 230 236 240
168 167 155 113 132 190 209 229 253 242 157 179 111 64 140 196 193 199 188 188 195 195 189 187 185 185 185 185 187 194 207 232 256 278 289 288 278 279 280 280 273 246 247 248 244 243 236 240 239
163 151 73 100 222 253 200 206 198 213 201 166 137 90 142 202 213 182 202 196 196 197 193 190 189 190 194 201 210 227 249 270 282 285 283 280 277 275 271 269 275 282 263 251 246 245 246 241 243
155 127 75 261 252 258 261 266 192 202 230 200 175 205 210 175 176 202 210 204 196 194 195 196 197 200 207 218 232 251 268 280 286 290 291 285 280 275 275 273 268 261 266 266 252 249 249 251 248
128 92 85 221 247 269 286 269 189 201 207 216 163 159 196 193 209 207 213 213 204 207 202 203 207 212 220 235 251 266 275 282 288 291 292 291 291 286 278 275 274 272 265 260 255 256 253 254 253
128 101 212 222 252 293 262 355 120 179 129 325 107 160 238 201 196 212 212 213 212 209 210 212 218 225 234 244 255 268 280 289 294 295 294 291 289 291 290 281 278 275 271 266 261 255 251 255 254
185 100 232 247 213 262 331 21 13 306 267 136 204 204 239 214 195 205 212 214 213 214 215 220 224 228 236 243 252 261 273 285 294 298 299 299 298 297 292 290 283 280 274 269 264 259 256 253 258
185 76 223 252 201 205 16 29 350 284 280 253 226 235 267 222 197 201 208 213 217 218 219 222 227 234 242 249 256 264 276 286 290 295 297 297 297 297 298 295 290 285 281 275 269 265 261 258 253
146 143 221 233 282 227 319 5 326 304 276 282 245 247 245 230 208 211 216 222 224 223 223 224 229 238 243 249 259 271 282 286 287 292 295 297 297 297 297 297 297 293 285 278 273 270 267 263 261
182 207 216 218 185 195 251 289 307 287 293 257 244 248 232 224 218 222 228 233 236 230 230 231 233 240 248 250 255 265 273 280 289 296 299 296 294 295 298 300 300 297 293 287 279 269 266 265 264
206 239 246 270 267 274 248 283 284 240 252 274 197 299 259 240 237 235 234 233 228 228 233 241 244 246 250 252 255 260 263 273 285 294 297 295 294 296 299 300 300 297 293 290 286 281 273 265 263
218 275 282 268 284 283 268 245 254 272 277 277 270 273 263 255 249 243 242 237 232 232 238 244 246 249 254 253 259 265 272 282 293 300 301 301 300 299 299 300 301 299 295 290 287 283 279 275 270
213 269 276 287 275 264 242 269 165 275 305 306 285 266 265 254 259 246 235 231 229 234 240 243 245 252 259 261 263 269 275 283 290 294 297 303 304 304 304 304 302 300 296 291 286 286 286 284 280
315 311 325 254 276 209 167 287 228 277 307 286 280 282 278 267 255 248 244 239 235 235 237 241 246 252 259 262 262 266 272 278 284 288 293 296 299 303 303 303 303 301 296 292 288 287 288 291 291
7 47 330 298 123 223 138 266 269 259 351 326 314 308 291 277 271 261 251 241 231 232 228 230 236 249 261 265 266 266 268 275 281 286 289 291 295 298 300 302 299 294 296 297 299 296 291 287 287
330 225 208 304 123 132 170 264 270 251 290 303 304 301 291 286 271 251 236 232 227 224 222 226 239 254 263 265 268 268 271 275 280 284 286 290 293 296 297 297 295 295 293 294 296 296 299 300 300
197 210 228 229 357 333 268 265 282 287 299 301 303 300 293 280 260 226 215 215 215 211 214 226 243 255 262 268 265 266 270 274 278 281 286 289 292 291 292 290 291 290 291 293 295 297 298 302 305
148 184 226 255 110 296 236 270 287 304 329 80 77 78 91 111 127 153 168 181 192 203 218 234 250 260 264 264 265 266 269 273 277 283 286 287 288 287 284 286 287 289 293 298 303 303 300 298 302
186 190 246 284 47 353 333 291 298 0 35 84 95 90 105 128 140 151 166 181 199 221 236 247 254 263 266 265 268 272 275 278 282 283 282 280 280 282 287 291 294 293 298 302 302 302 307 310 321
190 187 202 210 331 12 338 307 333 54 99 86 78 84 100 149 203 212 222 229 236 244 253 261 265 265 268 272 276 278 281 284 284 281 277 278 281 285 288 288 294 300 307 308 309 313 315 314 320
194 156 120 97 63 235 11 281 282 170 177 285 111 114 88 56 289 241 241 248 253 257 261 265 269 274 277 278 278 278 281 280 276 273 273 274 277 278 281 289 293 298 301 305 308 309 312 307 313
199 127 112 113 92 49 338 87 270 175 217 249 244 218 336 315 297 292 283 279 277 277 276 274 276 276 276 278 280 280 279 278 275 276 276 276 275 277 281 283 286 291 298 303 302 303 301 308 304
137 94 65 58 90 328 232 149 254 205 195 209 235 276 303 308 303 295 289 281 281 280 280 278 277 277 278 279 279 278 276 275 275 276 275 274 275 276 277 279 282 288 292 292 295 296 305 306 297
85 100 1 345 357 219 290 135 253 228 208 198 242 313 328 332 315 305 295 289 285 281 278 277 278 279 279 281 278 276 275 274 273 276 275 275 274 272 272 276 278 285 288 290 294 299 303 296 297
181 157 168 205 196 257 347 232 257 220 214 251 290 323 324 319 308 301 294 294 295 291 285 282 284 282 280 278 276 276 274 278 282 280 277 273 269 269 267 269 279 284 292 300 304 302 297 298 299
189 183 146 101 34 72 231 285 280 142 339 339 355 343 338 332 320 303 292 294 301 297 290 285 281 279 278 279 280 280 284 286 283 276 269 260 267 268 271 275 276 284 296 301 297 295 299 298 299
138 159 81 2 139 249 281 276 232 215 233 297 316 324 340 349 352 336 305 306 308 303 294 286 281 278 279 282 286 287 290 281 268 264 261 263 268 282 278 277 290 304 300 297 299 307 311 306 306
151 155 70 113 134 170 248 260 214 179 188 211 265 302 342 6 8 1 345 326 322 313 303 294 285 281 280 286 294 296 280 265 270 275 273 274 275 276 283 299 304 304 303 305 309 314 313 309 303
187 188 149 134 229 212 161 272 202 178 196 214 274 298 354 15 12 8 358 342 327 317 310 304 297 295 294 291 284 266 258 273 287 287 295 288 279 289 300 311 315 313 314 318 330 340 339 328 318
Wind_Speed_850mb
16 21 22 12 7 9 6 12 6 14 7 5 3 6 11 8 2 6 13 35 27 25 28 28 25 22 20 17 13 10 8 7 6 8 14 14 16 20 21 19 19 17 19 16 18 24 26 24 27
18 21 13 7 8 5 10 9 8 7 7 4 9 13 5 2 7 10 31 37 31 27 32 32 27 23 20 17 14 10 8 7 6 8 8 11 15 20 22 23 25 27 27 26 25 25 30 31 32
21 20 7 8 7 10 10 5 6 4 5 6 6 6 7 4 14 9 16 40 36 34 35 33 29 25 20 16 13 10 7 6 6 9 11 13 15 19 19 22 24 23 24 28 30 28 31 33 32
14 8 5 7 11 12 11 7 8 6 5 5 11 5 2 9 5 21 23 35 34 37 37 34 31 27 23 18 14 11 11 12 13 15 17 19 20 23 24 25 27 23 23 30 29 29 29 31 31
13 6 6 2 10 11 9 14 24 9 4 6 11 7 5 10 15 21 24 31 32 35 35 34 32 27 23 19 16 16 16 16 18 20 22 23 25 25 27 27 26 27 27 23 29 34 32 34 34
6 3 5 7 11 9 13 7 10 6 5 4 10 14 7 14 22 22 25 31 30 29 33 34 32 28 23 20 18 19 21 22 22 22 22 25 26 26 26 27 28 28 28 30 28 27 35 38 38
9 8 8 8 9 10 6 8 4 4 0 1 2 8 6 20 23 25 30 35 34 34 35 34 31 27 24 22 20 21 22 22 22 22 24 23 25 25 23 24 26 27 30 32 33 35 35 39 41
3 7 4 8 6 7 8 6 3 5 4 1 5 8 9 28 33 35 38 39 37 37 36 36 32 28 27 23 21 20 19 22 23 23 23 24 26 25 24 23 22 25 26 30 34 38 43 45 43
5 5 6 8 7 3 9 6 3 6 10 5 7 10 13 14 38 43 45 45 44 41 38 38 34 31 28 24 23 21 19 19 20 21 22 24 26 27 29 29 28 27 28 29 32 36 41 45 48
8 6 15 6 0 3 4 4 13 8 14 6 17 24 23 22 39 47 50 49 50 45 40 36 33 32 29 26 24 21 21 20 19 20 22 24 26 26 27 29 32 33 34 34 33 35 38 43 47
12 11 8 4 2 3 5 9 3 10 10 18 17 20 22 29 41 47 49 48 46 40 38 35 32 32 30 28 25 22 21 21 22 24 25 25 25 25 26 28 30 34 37 38 37 37 40 41 44
6 19 18 8 2 5 6 7 8 22 29 7 11 22 23 34 45 50 49 50 49 44 38 35 33 32 32 31 27 25 23 23 24 26 28 28 29 30 31 32 33 35 38 40 41 41 41 42 44
9 7 11 21 26 23 17 18 14 45 54 47 48 42 29 37 46 49 48 45 46 46 43 41 37 35 32 32 30 29 27 27 28 30 32 33 33 33 34 35 37 39 38 38 39 40 41 42 44
3 9 21 26 34 19 9 6 7 32 25 18 19 23 39 47 49 50 52 49 50 46 46 44 42 37 34 33 33 31 30 30 31 33 35 37 38 37 38 40 41 39 38 35 37 38 38 38 40
4 11 13 13 11 8 6 11 16 27 25 18 18 31 30 29 38 52 50 49 47 46 45 48 44 39 38 36 34 33 33 33 35 35 35 36 39 40 41 42 40 37 34 32 30 32 35 38 40
2 5 7 4 11 1 6 14 10 8 4 6 17 23 20 31 36 40 46 44 45 48 51 52 46 41 39 37 36 35 36 36 37 36 35 36 39 41 42 38 34 32 30 29 28 29 29 32 37
3 7 11 10 2 5 6 11 11 12 22 44 53 42 40 42 46 43 49 50 51 51 54 50 45 40 40 39 38 38 38 37 36 35 36 38 40 40 39 34 30 28 26 26 27 26 31 35 39
13 9 9 9 3 1 8 20 19 56 47 42 30 23 16 16 15 25 43 45 50 47 46 42 41 42 43 43 39 38 36 35 34 35 38 40 39 36 28 25 25 27 27 28 29 33 32 37 44
7 7 8 6 2 4 11 14 22 39 13 11 12 12 14 17 20 23 31 38 42 41 39 38 39 42 42 39 37 35 33 33 34 37 37 36 32 28 24 25 26 26 26 26 28 28 30 30 37
6 7 9 8 2 2 8 21 2 9 6 11 13 14 13 16 17 19 22 25 28 29 33 37 39 41 38 34 33 32 34 34 35 35 33 32 30 29 29 27 24 21 21 21 24 27 27 28 30
8 9 7 6 12 3 13 11 3 2 9 14 13 10 7 6 11 15 18 23 28 32 37 38 34 32 32 33 34 36 37 37 36 34 32 32 32 31 28 26 23 21 22 23 25 25 26 29 30
8 7 8 7 7 6 5 9 6 7 4 1 3 5 5 4 1 6 11 15 20 23 27 30 30 33 37 38 37 38 38 36 33 31 29 27 29 28 27 23 23 23 23 24 24 23 26 29 31
8 7 8 7 6 8 1 6 11 8 5 5 5 2 4 11 15 19 21 23 25 27 29 33 37 38 39 40 39 37 35 33 31 29 28 26 27 28 24 24 24 24 25 26 27 25 24 26 32
12 8 8 7 6 2 8 9 8 9 11 6 7 11 20 16 15 17 20 23 26 29 31 33 34 35 35 35 34 32 31 29 27 27 26 27 26 25 24 25 25 24 25 26 26 27 26 31 35
7 9 4 7 4 10 5 2 15 8 9 8 6 13 13 14 18 20 23 26 27 30 32 32 31 30 31 31 29 28 27 26 25 26 29 28 26 25 24 25 25 23 25 26 25 27 28 32 35
10 11 9 13 7 7 6 11 10 10 0 5 8 12 16 21 23 24 25 25 26 28 28 29 29 29 29 28 27 26 26 26 28 32 31 28 27 23 23 24 23 24 25 26 28 32 35 37 40
9 6 5 12 7 5 6 12 7 7 6 6 13 14 19 25 25 24 21 22 24 23 24 26 27 27 27 27 27 27 27 27 30 30 26 23 21 20 20 21 23 22 23 27 32 36 36 40 41
4 8 6 5 5 8 9 10 10 8 9 7 10 15 21 23 24 18 15 18 21 22 24 25 26 26 25 25 24 24 25 27 25 21 17 17 16 16 20 21 21 23 27 30 34 33 31 35 33
7 3 5 7 7 9 4 11 11 16 15 11 14 10 15 21 25 21 15 18 20 20 21 22 23 21 18 18 21 24 23 19 17 16 16 16 14 16 16 15 17 20 23 25 27 30 34 37 38
3 10 8 8 10 3 6 12 6 14 13 15 13 7 8 15 20 21 21 20 20 20 19 19 19 17 17 18 19 18 15 11 10 11 12 13 12 14 12 12 14 15 16 17 19 23 26 31 33
Wind_Direction_850mb
151 154 151 139 69 66 262 261 261 305 328 314 53 98 135 67 151 206 157 172 180 190 191 187 182 185 187 187 186 177 181 188 214 241 242 247 245 240 249 249 260 255 237 254 267 247 250 249 241
161 164 155 115 97 112 260 257 217 218 178 129 103 107 75 153 149 168 157 186 202 198 186 188 183 181 181 180 183 185 193 211 241 259 260 253 262 269 265 259 248 247 244 235 234 234 230 236 240
168 167 155 113 132 190 209 229 253 242 157 179 111 64 140 196 193 199 188 188 195 195 189 187 185 185 185 185 187 194 207 232 256 278 289 288 278 279 280 280 273 246 247 248 244 243 236 240 239
163 151 73 100 222 253 200 206 198 213 201 166 137 90 142 202 213 182 202 196 196 197 193 190 189 190 194 201 210 227 249 270 282 285 283 280 277 275 271 269 275 282 263 251 246 245 246 241 243
155 127 75 261 252 258 261 266 192 202 230 200 175 205 210 175 176 202 210 204 196 194 195 196 197 200 207 218 232 251 268 280 286 290 291 285 280 275 275 273 268 261 266 266 252 249 249 251 248
128 92 85 221 247 269 286 269 189 201 207 216 163 159 196 193 209 207 213 213 204 207 202 203 207 212 220 235 251 266 275 282 288 291 292 291 291 286 278 275 274 272 265 260 255 256 253 254 253
128 101 212 222 252 293 262 355 120 179 129 325 107 160 238 201 196 212 212 213 212 209 210 212 218 225 234 244 255 268 280 289 294 295 294 291 289 291 290 281 278 275 271 266 261 255 251 255 254
185 100 232 247 213 262 331 21 13 306 267 136 204 204 239 214 195 205 212 214 213 214 215 220 224 228 236 243 252 261 273 285 294 298 299 299 298 297 292 290 283 280 274 269 264 259 256 253 258
185 76 223 252 201 205 16 29 350 284 280 253 226 235 267 222 197 201 208 213 217 218 219 222 227 234 242 249 256 264 276 286 290 295 297 297 297 297 298 295 290 285 281 275 269 265 261 258 253
146 143 221 233 282 227 319 5 326 304 276 282 245 247 245 230 208 211 216 222 224 223 223 224 229 238 243 249 259 271 282 286 287 292 295 297 297 297 297 297 297 293 285 278 273 270 267 263 261
182 207 216 218 185 195 251 289 307 287 293 257 244 248 232 224 218 222 228 233 236 230 230 231 233 240 248 250 255 265 273 280 289 296 299 296 294 295 298 300 300 297 293 287 279 269 266 265 264
206 239 246 270 267 274 248 283 284 240 252 274 197 299 259 240 237 235 234 233 228 228 233 241 244 246 250 252 255 260 263 273 285 294 297 295 294 296 299 300 300 297 293 290 286 281 273 265 263
218 275 282 268 284 283 268 245 254 272 277 277 270 273 263 255 249 243 242 237 232 232 238 244 246 249 254 253 259 265 272 282 293 300 301 301 300 299 299 300 301 299 295 290 287 283 279 275 270
213 269 276 287 275 264 242 269 165 275 305 306 285 266 265 254 259 246 235 231 229 234 240 243 245 252 259 261 263 269 275 283 290 294 297 303 304 304 304 304 302 300 296 291 286 286 286 284 280
315 311 325 254 276 209 167 287 228 277 307 286 280 282 278 267 255 248 244 239 235 235 237 241 246 252 259 262 262 266 272 278 284 288 293 296 299 303 303 303 303 301 296 292 288 287 288 291 291
7 47 330 298 123 223 138 266 269 259 351 326 314 308 291 277 271 261 251 241 231 232 228 230 236 249 261 265 266 266 268 275 281 286 289 291 295 298 300 302 299 294 296 297 299 296 291 287 287
330 225 208 304 123 132 170 264 270 251 290 303 304 301 291 286 271 251 236 232 227 224 222 226 239 254 263 265 268 268 271 275 280 284 286 290 293 296 297 297 295 295 293 294 296 296 299 300 300
197 210 228 229 357 333 268 265 282 287 299 301 303 300 293 280 260 226 215 215 215 211 214 226 243 255 262 268 265 266 270 274 278 281 286 289 292 291 292 290 291 290 291 293 295 297 298 302 305
148 184 226 255 110 296 236 270 287 304 329 80 77 78 91 111 127 153 168 181 192 203 218 234 250 260 264 264 265 266 269 273 277 283 286 287 288 287 284 286 287 289 293 298 303 303 300 298 302
186 190 246 284 47 353 333 291 298 0 35 84 95 90 105 128 140 151 166 181 199 221 236 247 254 263 266 265 268 272 275 278 282 283 282 280 280 282 287 291 294 293 298 302 302 302 307 310 321
190 187 202 210 331 12 338 307 333 54 99 86 78 84 100 149 203 212 222 229 236 244 253 261 265 265 268 272 276 278 281 284 284 281 277 278 281 285 288 288 294 300 307 308 309 313 315 314 320
194 156 120 97 63 235 11 281 282 170 177 285 111 114 88 56 289 241 241 248 253 257 261 265 269 274 277 278 278 278 281 280 276 273 273 274 277 278 281 289 293 298 301 305 308 309 312 307 313
199 127 112 113 92 49 338 87 270 175 217 249 244 218 336 315 297 292 283 279 277 277 276 274 276 276 276 278 280 280 279 278 275 276 276 276 275 277 281 283 286 291 298 303 302 303 301 308 304
137 94 65 58 90 328 232 149 254 205 195 209 235 276 303 308 303 295 289 281 281 280 280 278 277 277 278 279 279 278 276 275 275 276 275 274 275 276 277 279 282 288 292 292 295 296 305 306 297
85 100 1 345 357 219 290 135 253 228 208 198 242 313 328 332 315 305 295 289 285 281 278 277 278 279 279 281 278 276 275 274 273 276 275 275 274 272 272 276 278 285 288 290 294 299 303 296 297
181 157 168 205 196 257 347 232 257 220 214 251 290 323 324 319 308 301 294 294 295 291 285 282 284 282 280 278 276 276 274 278 282 280 277 273 269 269 267 269 279 284 292 300 304 302 297 298 299
189 183 146 101 34 72 231 285 280 142 339 339 355 343 338 332 320 303 292 294 301 297 290 285 281 279 278 279 280 280 284 286 283 276 269 260 267 268 271 275 276 284 296 301 297 295 299 298 299
138 159 81 2 139 249 281 276 232 215 233 297 316 324 340 349 352 336 305 306 308 303 294 286 281 278 279 282 286 287 290 281 268 264 261 263 268 282 278 277 290 304 300 297 299 307 311 306 306
151 155 70 113 134 170 248 260 214 179 188 211 265 302 342 6 8 1 345 326 322 313 303 294 285 281 280 286 294 296 280 265 270 275 273 274 275 276 283 299 304 304 303 305 309 314 313 309 303
187 188 149 134 229 212 161 272 202 178 196 214 274 298 354 15 12 8 358 342 327 317 310 304 297 295 294 291 284 266 258 273 287 287 295 288 279 289 300 311 315 313 314 318 330 340 339 328 318